Tracking 29511 objects as of 17-Sep-2024
HD Live streaming from Space Station
objects crossing your sky now

FENGYUN 1C DEB

Track FENGYUN 1C DEB now!
10-day predictions


NORAD ID: 32198
Int'l Code: 1999-025CUU
Perigee: 814.0 km
Apogee: 958.8 km
Inclination: 98.3 °
Period: 102.5 minutes
Semi major axis: 7257 km
RCS: 0.0075 m2 (small)
Launch date: May 10, 1999
Source: People's Republic of China (PRC)
Launch site: Taiyaun Space Center, China (TSC)

Note: This is SATELLITE DEBRIS
Your satellite tracking list
Your tracking list is empty




NASA's NSSDC Master Catalog

Two Line Element Set (TLE):
1 32198U 99025CUU 24259.76783720  .00009653  00000-0  58366-2 0  9993
2 32198  98.3231  75.9880 0099749 144.8966 215.8830 14.04200852505760
Source of the keplerian elements: AFSPC